THOR ABLESTAR DEB, 956

Orbit data source: Space-Track

THOR ABLESTAR DEB, 956 is space debris in LEO originally from a launch on Sun, 13 Dec 1964 UTC launched from the Air Force Western Test Range (AFWTR). Debris objects in space refer to the collection of defunct objects orbiting the Earth. Examples of debris include non-operational satellites, rocket bodies, and fragments generated from explosions, collisions, or faulty payload assembly.

Loading next visibility...
THOR ABLESTAR DEB details
Identifier
956, 1964-083B
Orbit
LEO
Last TLE update1 day ago
Origin
Flag of USUSN BuWeps (US)
ManufacturerUnknown
MissionSpacecraft
Bus & MotorUnknown
MassUnknown
Launch date (UTC)
1964-12-13 (60 years ago)
Launch vehicleUnknown
Launch site
Air Force Western Test Range (AFWTR)
Object type
Payload
Rocket body
Debris
Shape & HBRUnknown
Radar Cross SectionSmall (<0.1 m²)

Expand to show TLE details & history

TLE from 1 day ago
0 THOR ABLESTAR DEB
1 00956U 64083B   24355.26774580  .00000495  00000-0  57769-3 0  9994
2 00956  89.9349 172.5901 0023381 195.9316 289.9846 13.67148730981835
Epoch: 2024-12-20T06:25Z
Definitive object data (Epoch: 2024-12-20T06:25:33.237Z)
Latitude54.43079°
Longitude166.77535°
Altitude1,013.013 km
Speed7.353 km/s
True Right ascension23h 29m 59s
True Declination54° 16' 25"
Sunlit
Object was in daylight at TLE epoch
Visualization TLE readout
Latitude69.76331°
Longitude166.68135°
Altitude1,019.448 km
Speed7.35 km/s
Apparent Right ascension00h 29m 13s
Apparent Declination21° 13' 20"
Sunlit
Object is in daylight
Visualization observer readout
Local Sidereal Time13:00:10
Azimuth8.207° NNE
Elevation-28.436°
Doppler factor1
Orbital elements
Apogee altitude1,024.117 km
Perigee altitude989.583 km
Semi-major axis7,384.987 km
Eccentricity0.0023381
Inclination89.9349°
RAAN172.5901°
Arg. of periapsis195.9316°
True anomaly289.73256°
Mean anomaly289.9846°
Eccentric anomaly289.8586°
Mean motion3.41994 °/min
BSTAR0.00057769
Orbital period105.26 mins
Loading maneuver chart data...

THOR ABLESTAR DEB Visibility forecast

Observer location: undefined°, undefined

Span
Click to sort rows by Start time (UTC) header in descending order
Start Az.
Max El. time (UTC)
Max El. Az.
Max El.
End time (UTC)
End Az.
6 mins2024-12-21 22:50:07.518Z44.716° NE2024-12-21 22:53:07.518Z75.038° E15.563°2024-12-21 22:56:07.518Z106.623° ESE
11 mins2024-12-22 00:34:07.518Z356.364° N2024-12-22 00:39:07.518Z275.301° WNW43.607°2024-12-22 00:45:07.518Z192.523° SSW
4 mins2024-12-22 10:42:07.518Z82.29° E2024-12-22 10:43:07.518Z72.142° E13.613°2024-12-22 10:46:07.518Z43.144° NE
10 mins2024-12-22 12:23:07.518Z178.646° S2024-12-22 12:27:07.518Z196.675° SSW44.415°2024-12-22 12:33:07.518Z356.739° N
|